TimeCST,TemperatureF,Dew PointF,Humidity,Sea Level PressureIn,VisibilityMPH,Wind Direction,Wind SpeedMPH,Gust SpeedMPH,PrecipitationIn,Events,Conditions,WindDirDegrees,DateUTC
12:15 AM,23.0,16.7,77,30.04,10.0,West,9.2,-,N/A,,Overcast,260,2013-01-03 06:15:00
12:35 AM,23.0,16.9,77,30.03,10.0,West,8.1,-,N/A,,Overcast,270,2013-01-03 06:35:00
12:55 AM,23.0,17.2,79,30.03,10.0,West,9.2,-,N/A,,Overcast,270,2013-01-03 06:55:00
1:15 AM,23.0,17.4,79,30.03,10.0,West,9.2,-,N/A,,Overcast,270,2013-01-03 07:15:00
1:35 AM,23.4,17.6,79,30.04,7.0,West,5.8,-,N/A,,Overcast,270,2013-01-03 07:35:00
1:55 AM,23.4,18.1,80,30.05,7.0,West,6.9,-,N/A,,Overcast,280,2013-01-03 07:55:00
2:15 AM,23.4,18.5,82,30.05,7.0,West,5.8,-,N/A,,Overcast,270,2013-01-03 08:15:00
2:35 AM,23.5,18.9,82,30.05,7.0,West,6.9,-,N/A,,Overcast,280,2013-01-03 08:35:00
2:55 AM,23.5,18.9,82,30.05,7.0,West,10.4,-,N/A,,Overcast,270,2013-01-03 08:55:00
3:15 AM,23.5,18.9,82,30.04,7.0,West,6.9,-,N/A,,Overcast,260,2013-01-03 09:15:00
3:35 AM,23.5,19.2,84,30.04,7.0,West,6.9,-,N/A,,Overcast,270,2013-01-03 09:35:00
3:55 AM,23.5,19.4,84,30.05,7.0,West,12.7,-,N/A,,Overcast,280,2013-01-03 09:55:00
4:15 AM,23.5,19.4,84,30.04,5.0,West,12.7,-,N/A,,Overcast,280,2013-01-03 10:15:00
4:35 AM,23.7,19.9,85,30.04,5.0,West,15.0,-,N/A,,Overcast,280,2013-01-03 10:35:00
4:55 AM,23.5,19.9,86,30.04,5.0,West,12.7,-,N/A,,Overcast,280,2013-01-03 10:55:00
5:15 AM,23.7,19.9,85,30.05,5.0,West,15.0,-,N/A,,Overcast,280,2013-01-03 11:15:00
5:35 AM,23.7,19.8,85,30.06,5.0,West,13.8,-,N/A,,Overcast,280,2013-01-03 11:35:00
5:55 AM,23.5,19.8,85,30.06,5.0,West,13.8,-,N/A,,Overcast,280,2013-01-03 11:55:00
6:15 AM,23.5,19.8,85,30.08,5.0,WNW,12.7,-,N/A,,Overcast,290,2013-01-03 12:15:00
6:35 AM,23.7,19.8,85,30.08,5.0,West,12.7,-,N/A,,Overcast,280,2013-01-03 12:35:00
7:15 AM,23.7,19.8,85,30.10,5.0,WNW,13.8,-,N/A,,Overcast,290,2013-01-03 13:15:00
7:35 AM,23.9,19.4,83,30.12,5.0,WNW,9.2,-,N/A,,Overcast,290,2013-01-03 13:35:00
7:55 AM,23.7,19.2,83,30.12,5.0,WNW,9.2,-,N/A,,Overcast,290,2013-01-03 13:55:00
8:15 AM,23.7,19.2,83,30.12,5.0,WNW,10.4,-,N/A,,Overcast,290,2013-01-03 14:15:00
8:35 AM,23.9,19.4,83,30.13,4.0,WNW,9.2,-,N/A,,Overcast,300,2013-01-03 14:35:00
8:55 AM,23.9,19.4,83,30.13,4.0,WNW,10.4,-,N/A,,Overcast,290,2013-01-03 14:55:00
9:15 AM,24.3,19.9,84,30.14,4.0,WNW,12.7,-,N/A,,Overcast,290,2013-01-03 15:15:00
9:35 AM,24.6,19.8,82,30.14,4.0,WNW,11.5,17.3,N/A,,Overcast,290,2013-01-03 15:35:00
9:55 AM,24.8,19.9,82,30.15,4.0,West,12.7,16.1,N/A,,Overcast,280,2013-01-03 15:55:00
10:15 AM,25.3,19.9,80,30.16,5.0,WNW,8.1,-,N/A,,Overcast,290,2013-01-03 16:15:00
10:35 AM,25.5,19.4,78,30.16,5.0,WNW,11.5,-,N/A,,Overcast,290,2013-01-03 16:35:00
10:55 AM,25.5,19.2,77,30.16,5.0,WNW,12.7,-,N/A,,Overcast,290,2013-01-03 16:55:00
11:15 AM,25.7,18.7,75,30.16,5.0,WNW,12.7,17.3,N/A,,Overcast,300,2013-01-03 17:15:00
11:35 AM,25.7,18.9,75,30.16,7.0,WNW,8.1,-,N/A,,Overcast,300,2013-01-03 17:35:00
11:55 AM,25.9,18.7,74,30.16,5.0,WNW,9.2,-,N/A,,Overcast,300,2013-01-03 17:55:00
12:15 PM,26.4,19.0,74,30.15,7.0,NW,9.2,-,N/A,,Overcast,310,2013-01-03 18:15:00
12:35 PM,26.4,18.5,72,30.15,7.0,WNW,8.1,-,N/A,,Overcast,300,2013-01-03 18:35:00
12:55 PM,26.6,18.9,73,30.15,7.0,WNW,10.4,-,N/A,,Overcast,300,2013-01-03 18:55:00
1:15 PM,27.0,19.8,74,30.14,7.0,West,12.7,-,N/A,,Overcast,270,2013-01-03 19:15:00
1:35 PM,27.0,20.1,75,30.15,7.0,West,10.4,-,N/A,,Overcast,270,2013-01-03 19:35:00
1:55 PM,26.6,19.9,76,30.15,7.0,West,10.4,-,N/A,,Overcast,270,2013-01-03 19:55:00
2:15 PM,26.6,19.4,74,30.16,7.0,West,10.4,-,N/A,,Overcast,270,2013-01-03 20:15:00
2:35 PM,26.6,19.0,73,30.16,10.0,West,10.4,-,N/A,,Overcast,270,2013-01-03 20:35:00
2:55 PM,26.4,18.3,71,30.17,10.0,West,9.2,-,N/A,,Overcast,270,2013-01-03 20:55:00
3:15 PM,26.6,17.6,69,30.17,10.0,West,10.4,-,N/A,,Mostly Cloudy,280,2013-01-03 21:15:00
3:35 PM,25.9,16.7,68,30.18,10.0,WNW,8.1,-,N/A,,Scattered Clouds,290,2013-01-03 21:35:00
3:55 PM,24.6,15.8,69,30.19,10.0,West,9.2,-,N/A,,Clear,280,2013-01-03 21:55:00
4:15 PM,24.3,15.6,70,30.19,10.0,West,10.4,-,N/A,,Clear,270,2013-01-03 22:15:00
4:55 PM,22.3,15.3,74,30.20,10.0,WSW,4.6,-,N/A,,Clear,240,2013-01-03 22:55:00
5:15 PM,20.8,14.2,75,30.20,10.0,SW,5.8,-,N/A,,Clear,220,2013-01-03 23:15:00
5:35 PM,20.1,13.5,75,30.21,10.0,WSW,8.1,-,N/A,,Clear,240,2013-01-03 23:35:00
5:55 PM,19.4,13.1,76,30.21,10.0,WSW,9.2,-,N/A,,Clear,240,2013-01-03 23:55:00
6:15 PM,18.9,12.7,77,30.21,10.0,WSW,8.1,-,N/A,,Clear,240,2013-01-04 00:15:00
6:35 PM,18.1,12.2,78,30.21,10.0,WSW,8.1,-,N/A,,Clear,240,2013-01-04 00:35:00
6:55 PM,17.8,11.8,78,30.21,10.0,SW,8.1,-,N/A,,Clear,230,2013-01-04 00:55:00
7:15 PM,17.1,11.1,77,30.21,10.0,WSW,8.1,-,N/A,,Clear,250,2013-01-04 01:15:00
7:35 PM,17.1,11.1,77,30.22,10.0,WSW,8.1,-,N/A,,Clear,250,2013-01-04 01:35:00
7:55 PM,16.7,10.8,77,30.21,10.0,WSW,10.4,-,N/A,,Clear,240,2013-01-04 01:55:00
8:15 PM,16.7,10.4,76,30.20,10.0,WSW,11.5,-,N/A,,Clear,250,2013-01-04 02:15:00
8:35 PM,16.2,9.9,76,30.20,10.0,West,9.2,-,N/A,,Clear,260,2013-01-04 02:35:00
8:55 PM,15.8,9.5,76,30.20,10.0,West,13.8,-,N/A,,Clear,260,2013-01-04 02:55:00
9:15 PM,15.1,8.8,76,30.20,10.0,West,11.5,-,N/A,,Clear,260,2013-01-04 03:15:00
9:35 PM,14.5,8.4,77,30.20,10.0,West,12.7,17.3,N/A,,Clear,260,2013-01-04 03:35:00
9:55 PM,14.0,7.7,76,30.20,10.0,West,10.4,-,N/A,,Clear,270,2013-01-04 03:55:00
10:15 PM,13.1,6.8,76,30.20,10.0,West,9.2,-,N/A,,Clear,270,2013-01-04 04:15:00
10:35 PM,12.6,6.3,76,30.21,10.0,West,10.4,-,N/A,,Clear,260,2013-01-04 04:35:00
10:55 PM,12.2,5.2,73,30.19,10.0,WSW,10.4,-,N/A,,Clear,250,2013-01-04 04:55:00
11:15 PM,11.8,4.8,73,30.19,10.0,WSW,8.1,-,N/A,,Clear,250,2013-01-04 05:15:00
11:35 PM,11.7,5.0,75,30.19,10.0,West,10.4,-,N/A,,Clear,260,2013-01-04 05:35:00
11:55 PM,11.1,4.8,76,30.18,10.0,WSW,9.2,-,N/A,,Clear,250,2013-01-04 05:55:00